(275724) = 2001 AG23 = 2008 SP280

Discovered at Socorro on 2001-01-03 by LINEAR.

Orbit

Orbit type: Main Belt

Note: WebGL enabled browser required.

epoch2024-03-31.0
epoch JD2460400.5
perihelion date2021-05-20.93793
perihelion JD2459355.43793
argument of perihelion (°)261.10469
ascending node (°)102.92306
inclination (°)11.77333
eccentricity0.1170901
perihelion distance (AU)2.3314114
Tisserand w.r.t. Jupiter3.4
ΔV w.r.t. Earth (km/sec)10.2
semimajor axis (AU)2.6405994
mean anomaly (°)240.04472
mean daily motion (°/day)0.22969420
aphelion distance (AU)2.950
period (years)4.29
P-vector [x]0.97727210
P-vector [y]0.14036520
P-vector [z]-0.15886114
Q-vector [x]-0.07341015
Q-vector [y]0.92709868
Q-vector [z]0.36755814
absolute magnitude15.83
phase slope0.15
uncertainty0
referenceMPEC 2024-E23
observations used526
oppositions15
arc length (days)8201
first opposition used2000
last opposition used2023
residual rms (arc-secs)0.65
perturbers coarse indicatorM-v
perturbers precise indicator003Ek
first observation date used2000-11-28.0
last observation date used2023-05-13.0
computer nameMPCLINUX
JD of orbit computation2456731.460186
perihelion JD uncertainty (days)1.4770E-04
argument of perihelion uncertainty (°)3.9418E-05
ascending node uncertainty (°)2.5131E-05
inclination uncertainty (°)6.3805E-06
eccentricity uncertainty 5.1423E-08
perihelion distance uncertainty (AU)1.3945E-07
Minimum Orbit Intersection Distances (in AU)
for orbit epoch: 2460400.5, reference: E2024-G88
Mercury1.96379
Venus1.61603
Earth1.36307
Mars0.9829
Jupiter2.5163
Saturn6.35809
Uranus15.5569
Neptune27.408

Observations

528 total observations over interval: 2000 11 28.45840 – 2023 05 13.197205
These data are available for download (format description).

Date (UT) J2000 RA J2000 Dec Magn Location Ref
2000 11 28.45840 07 50 03.53 +19 53 19.6 19.1   704 – Lincoln Laboratory ETS, New Mexico MPS 312951
2000 11 28.48837 07 50 03.01 +19 53 27.9 19.6   704 – Lincoln Laboratory ETS, New Mexico MPS 312951
2000 11 28.50312 07 50 02.85 +19 53 32.3 19.7   704 – Lincoln Laboratory ETS, New Mexico MPS 312951
2000 12 29.42495 07 30 36.12 +22 48 27.3 19.7 V 691 – Steward Observatory, Kitt Peak-Spacewatch MPS 27919
2000 12 29.44792 07 30 34.74 +22 48 36.1 19.7 V 691 – Steward Observatory, Kitt Peak-Spacewatch MPS 27919
2000 12 29.47069 07 30 33.38 +22 48 44.8 19.8 V 691 – Steward Observatory, Kitt Peak-Spacewatch MPS 27919
2001 01 03.33168 07 25 44.07 +23 20 15.2 19.6   704 – Lincoln Laboratory ETS, New Mexico MPS 25574
2001 01 03.34654 07 25 43.07 +23 20 21.5 19.3   704 – Lincoln Laboratory ETS, New Mexico MPS 25574
2001 01 03.36129 07 25 42.23 +23 20 26.8 19.2   704 – Lincoln Laboratory ETS, New Mexico MPS 25574
2001 01 04.29777 07 24 45.13 +23 26 27.9 19.1   704 – Lincoln Laboratory ETS, New Mexico MPS 25574
2001 01 04.31288 07 24 44.27 +23 26 34.7 19.5   704 – Lincoln Laboratory ETS, New Mexico MPS 25574
2001 01 04.32799 07 24 43.29 +23 26 40.5 19.3   704 – Lincoln Laboratory ETS, New Mexico MPS 25574
2001 01 04.34311 07 24 42.31 +23 26 45.7 19.0   704 – Lincoln Laboratory ETS, New Mexico MPS 25574
2001 01 04.35822 07 24 41.36 +23 26 52.1 19.4   704 – Lincoln Laboratory ETS, New Mexico MPS 25574
2005 02 01.12581 04 36 17.63 +18 26 49.6 19.6 R 703 – Catalina Sky Survey MPS 289798
2005 02 01.13392 04 36 17.71 +18 26 53.0 19.3 R 703 – Catalina Sky Survey MPS 289798
2005 02 01.14200 04 36 17.86 +18 26 55.0 19.5 R 703 – Catalina Sky Survey MPS 289798
2005 02 01.15002 04 36 17.97 +18 26 58.7 18.5 R 703 – Catalina Sky Survey MPS 289798
2006 04 02.32098 11 39 56.12 +20 03 49.1 19.5 V 703 – Catalina Sky Survey MPS 289798
2006 04 02.33138 11 39 55.65 +20 03 51.4 19.4 V 703 – Catalina Sky Survey MPS 289798
2006 04 02.34161 11 39 55.36 +20 03 52.2 19.7 V 703 – Catalina Sky Survey MPS 289798
2006 04 02.35179 11 39 54.64 +20 03 49.4 18.2 V 703 – Catalina Sky Survey MPS 289798
2008 09 22.34649 03 07 59.07 -00 38 03.2   704 – Lincoln Laboratory ETS, New Mexico MPS 407508
2008 09 22.35847 03 07 58.96 -00 38 07.5   704 – Lincoln Laboratory ETS, New Mexico MPS 407508
2008 09 22.37046 03 07 58.88 -00 38 10.5   704 – Lincoln Laboratory ETS, New Mexico MPS 407508
2008 09 22.38249 03 07 58.76 -00 38 13.8   704 – Lincoln Laboratory ETS, New Mexico MPS 407508
2008 09 22.39446 03 07 58.61 -00 38 18.3   704 – Lincoln Laboratory ETS, New Mexico MPS 407508
2008 09 29.39885 03 06 28.58 -01 12 56.4 18.9 V 703 – Catalina Sky Survey MPS 289874
2008 09 29.40983 03 06 28.40 -01 12 59.7 19.4 V 703 – Catalina Sky Survey MPS 289874
2008 09 29.42078 03 06 28.15 -01 13 02.2 18.9 V 703 – Catalina Sky Survey MPS 289874
2008 09 29.43182 03 06 27.90 -01 13 06.1 19.1 V 703 – Catalina Sky Survey MPS 289874
2008 10 23.25652 02 51 26.50 -02 57 43.2   704 – Lincoln Laboratory ETS, New Mexico MPS 407508
2008 10 23.26790 02 51 25.92 -02 57 45.2   704 – Lincoln Laboratory ETS, New Mexico MPS 407508
2008 10 23.27928 02 51 25.28 -02 57 47.4   704 – Lincoln Laboratory ETS, New Mexico MPS 407508
2008 10 23.29067 02 51 24.65 -02 57 50.3   704 – Lincoln Laboratory ETS, New Mexico MPS 407508
2008 10 23.30205 02 51 24.06 -02 57 52.5   704 – Lincoln Laboratory ETS, New Mexico MPS 407508
2008 11 03.30039 02 41 16.72 -03 20 38.1 19.1 V 703 – Catalina Sky Survey MPS 289874
2008 11 03.30620 02 41 16.36 -03 20 38.3 19.2 V 703 – Catalina Sky Survey MPS 289874
2008 11 03.31202 02 41 16.00 -03 20 38.9 18.8 V 703 – Catalina Sky Survey MPS 289874
2008 11 03.31787 02 41 15.64 -03 20 38.8 18.9 V 703 – Catalina Sky Survey MPS 289874
2008 11 17.24902 02 28 49.62 -03 11 09.1 19.6 V 703 – Catalina Sky Survey MPS 289874
2008 11 17.25625 02 28 49.18 -03 11 08.2 19.2 V 703 – Catalina Sky Survey MPS 289874
2008 11 17.26351 02 28 48.97 -03 11 07.8 19.2 V 703 – Catalina Sky Survey MPS 289874
2008 11 17.27073 02 28 48.46 -03 11 06.1 18.4 V 703 – Catalina Sky Survey MPS 289874
2010 02 17.32179 10 14 37.17 +24 22 09.2 19.4 V 703 – Catalina Sky Survey MPS 312951
2010 02 17.32998 10 14 36.70 +24 22 12.9 19.9 V 703 – Catalina Sky Survey MPS 312951
2010 02 17.33800 10 14 36.27 +24 22 16.9 19.7 V 703 – Catalina Sky Survey MPS 312951
2010 02 17.34591 10 14 35.84 +24 22 18.9 19.9 V 703 – Catalina Sky Survey MPS 312951
2010 02 21.358027 10 10 57.937 +24 50 43.98 19.64 r F51 – Pan-STARRS 1, Haleakala MPS 337262
2010 02 21.358585 10 10 57.902 +24 50 44.22 19.63 r F51 – Pan-STARRS 1, Haleakala MPS 319227
2010 02 21.366713 10 10 57.451 +24 50 47.57 19.65 r F51 – Pan-STARRS 1, Haleakala MPS 337262
2010 02 21.367280 10 10 57.421 +24 50 47.73 19.47 r F51 – Pan-STARRS 1, Haleakala MPS 319227
2010 03 03.510298 10 02 02.467 +25 50 01.85 19.95 i F51 – Pan-STARRS 1, Haleakala MPS 337262
2010 03 03.519202 10 02 01.972 +25 50 04.55 19.94 i F51 – Pan-STARRS 1, Haleakala MPS 337262
2010 03 11.437139 09 55 52.042 +26 22 06.78 19.99 r F51 – Pan-STARRS 1, Haleakala MPS 337262
2010 03 11.446381 09 55 51.615 +26 22 08.61 20.00 r F51 – Pan-STARRS 1, Haleakala MPS 337262
2011 04 22.38833 15 54 34.46 -05 43 06.5 20.3 V 691 – Steward Observatory, Kitt Peak-Spacewatch MPS 379994
2011 04 22.40605 15 54 33.76 -05 43 03.3 20.0 V 691 – Steward Observatory, Kitt Peak-Spacewatch MPS 379994
2011 04 22.42380 15 54 33.05 -05 43 00.0 20.0 V 691 – Steward Observatory, Kitt Peak-Spacewatch MPS 379994
2011 04 26.38170 15 51 51.17 -05 31 50.7 20.8 V 691 – Steward Observatory, Kitt Peak-Spacewatch MPS 379994
2011 04 26.39941 15 51 50.36 -05 31 48.1 20.7 V 691 – Steward Observatory, Kitt Peak-Spacewatch MPS 379994
2011 04 26.41464 15 51 49.71 -05 31 44.8 20.5 V 691 – Steward Observatory, Kitt Peak-Spacewatch MPS 379994
2011 04 28.51218 15 50 16.762 -05 26 09.18 20.5 g F51 – Pan-STARRS 1, Haleakala MPS 381157
2011 04 28.52450 15 50 16.164 -05 26 07.17 20.6 g F51 – Pan-STARRS 1, Haleakala MPS 381157
2011 04 28.53706 15 50 15.563 -05 26 05.17 20.3 r F51 – Pan-STARRS 1, Haleakala MPS 381157
2011 04 28.54752 15 50 15.084 -05 26 03.61 19.9 r F51 – Pan-STARRS 1, Haleakala MPS 381157
2011 04 30.39269 15 48 49.53 -05 21 23.2 19.7 V 691 – Steward Observatory, Kitt Peak-Spacewatch MPS 381157
2011 04 30.41042 15 48 48.67 -05 21 20.2 19.8 V 691 – Steward Observatory, Kitt Peak-Spacewatch MPS 381157
2011 04 30.42815 15 48 47.81 -05 21 17.5 19.7 V 691 – Steward Observatory, Kitt Peak-Spacewatch MPS 381157
2011 05 10.34294 15 40 21.33 -05 00 44.1   691 – Steward Observatory, Kitt Peak-Spacewatch MPS 382101
2011 05 10.35571 15 40 20.53 -05 00 41.3   691 – Steward Observatory, Kitt Peak-Spacewatch MPS 382101
2011 05 10.36847 15 40 19.82 -05 00 40.3   691 – Steward Observatory, Kitt Peak-Spacewatch MPS 382101
2011 05 14.50835 15 36 33.225 -04 54 54.96 19.7 i F51 – Pan-STARRS 1, Haleakala MPS 385756
2011 05 14.51987 15 36 32.572 -04 54 54.13 19.6 i F51 – Pan-STARRS 1, Haleakala MPS 385756
2012 07 28.60359 00 19 19.021 -13 29 45.36 19.0 z F51 – Pan-STARRS 1, Haleakala MPS 429014
2012 07 28.61515 00 19 19.245 -13 29 49.74 18.9 z F51 – Pan-STARRS 1, Haleakala MPS 429014
2012 08 28.24078 00 17 13.68 -17 48 37.6 19.2 G G45 – Space Surveillance Telescope, Atom Site MPS 1608791
2012 08 28.25243 00 17 13.32 -17 48 43.4 19.5 G G45 – Space Surveillance Telescope, Atom Site MPS 1608791
2012 08 28.27839 00 17 12.57 -17 48 59.3 18.4 G G45 – Space Surveillance Telescope, Atom Site MPS 1608791
2012 08 28.38832 00 17 09.05 -17 50 02.2 18.8 G G45 – Space Surveillance Telescope, Atom Site MPS 1608791
2012 09 11.32123 00 08 17.78 -19 55 51.0 19.2 G G45 – Space Surveillance Telescope, Atom Site MPS 1608791
2012 09 11.39617 00 08 14.20 -19 56 28.0 18.8 G G45 – Space Surveillance Telescope, Atom Site MPS 1608791
2012 09 11.40843 00 08 13.62 -19 56 33.7 18.7 G G45 – Space Surveillance Telescope, Atom Site MPS 1608791
2012 09 11.43979 00 08 12.14 -19 56 48.9 18.8 G G45 – Space Surveillance Telescope, Atom Site MPS 1608791
2012 10 20.16653 23 41 03.14 -21 52 34.8 19.7   704 – Lincoln Laboratory ETS, New Mexico MPS 439336
2012 10 20.18050 23 41 02.82 -21 52 31.6 19.6   704 – Lincoln Laboratory ETS, New Mexico MPS 439336
